Wind_Speed
33 35 36 37 38 39 39 40 40 39 41 41 42 42 43 44 44 44 44 43 43 44 44 44 44 44 44 44 44 44 44 44 45 45 45 45 45 46 46 47 47 47 48
32 33 35 37 38 38 39 39 40 41 41 41 42 43 44 45 45 46 46 45 45 45 45 45 45 45 45 45 45 46 46 46 46 46 46 45 45 46 47 47 47 48 48
33 33 34 36 38 38 38 39 40 41 42 42 43 43 44 45 46 47 47 47 47 47 47 47 47 46 46 46 47 47 47 48 48 48 48 48 47 47 47 48 48 48 49
33 33 34 35 37 38 38 39 40 41 43 43 43 43 44 45 46 47 47 48 47 47 48 48 48 48 48 48 48 48 48 49 49 49 50 50 50 49 48 49 49 50 50
33 33 34 35 36 37 37 37 38 39 41 43 43 44 44 44 45 46 47 47 46 46 46 47 48 47 48 48 48 49 49 50 50 50 50 51 51 51 50 49 49 50 50
33 33 33 35 35 36 37 38 38 38 38 40 41 42 43 44 45 46 46 47 47 47 48 47 47 47 48 48 49 49 49 49 50 50 51 51 51 50 50 49 49 50 50
31 32 33 34 34 35 36 37 37 38 39 39 39 41 42 44 45 46 47 47 48 48 48 48 48 48 48 48 48 48 48 49 49 50 50 50 49 50 50 50 49 50 50
31 31 32 33 34 34 35 36 36 37 38 39 39 39 39 41 43 45 47 48 48 47 47 48 48 49 48 47 47 47 48 48 48 48 48 49 49 49 49 49 49 49 49
30 31 31 32 33 33 34 34 35 36 37 37 38 40 40 41 42 43 44 46 46 47 46 47 48 48 47 46 46 46 47 47 47 46 47 47 48 49 48 48 49 49 48
29 30 31 32 32 32 33 34 35 36 37 38 39 40 41 41 41 41 42 43 44 45 46 46 46 46 46 46 46 46 46 46 46 46 46 47 47 48 49 48 48 48 48
30 30 30 30 31 32 33 34 35 36 36 37 38 39 40 41 41 41 42 43 43 44 45 45 45 45 45 46 45 45 45 45 45 46 46 46 46 46 47 48 48 48 48
30 30 30 31 31 33 34 34 35 36 37 37 38 38 39 39 39 40 41 42 43 44 45 45 45 45 45 45 45 45 44 45 45 45 45 45 46 46 46 46 46 46 47
30 30 31 32 32 33 33 34 34 35 36 37 37 38 38 38 39 39 40 41 42 43 44 44 43 44 44 44 44 45 44 44 43 43 43 44 44 45 45 45 44 44 44
31 31 32 32 33 33 33 33 34 34 35 36 36 37 37 37 38 38 39 40 40 41 41 42 42 43 43 42 43 43 42 41 41 41 41 42 42 42 42 42 42 42 41
32 32 33 33 33 33 33 33 33 34 34 35 35 36 36 36 36 37 37 38 38 39 39 40 40 40 40 40 40 40 40 39 39 40 40 40 40 40 40 40 40 40 39
33 33 33 33 32 32 33 33 33 33 33 33 33 34 34 35 35 36 37 37 37 37 37 38 38 38 38 38 38 38 37 38 38 38 37 37 38 38 38 37 37 37 37
33 32 32 32 32 32 32 33 33 32 32 32 32 33 34 34 34 35 35 35 35 36 36 36 36 36 37 37 36 35 36 36 36 36 36 36 36 36 35 35 35 35 34
32 32 32 32 32 32 32 32 32 32 32 32 32 32 33 33 33 34 34 34 34 34 35 35 35 35 35 34 34 34 34 34 34 34 34 35 34 34 34 34 33 33 33
31 32 32 32 32 32 31 31 30 30 30 31 31 31 32 32 32 32 33 33 32 32 32 33 33 33 33 33 33 33 32 32 33 32 32 33 33 33 33 33 33 33 32
29 29 29 29 29 29 30 29 29 29 29 29 29 30 30 30 31 30 31 31 31 31 31 31 32 31 31 31 31 31 30 30 30 30 30 31 31 31 31 31 31 31 31
28 27 27 27 27 28 28 28 27 27 27 27 28 28 29 29 29 29 29 29 30 30 30 29 29 29 29 29 29 28 27 27 28 28 28 30 30 29 29 30 30 30 30
26 26 26 26 26 27 27 27 27 27 27 27 28 28 28 27 28 27 28 28 27 26 26 26 26 26 26 27 28 27 27 27 27 27 27 28 28 28 29 29 29 29 29
25 25 25 24 24 24 25 25 25 25 25 26 27 27 27 26 25 25 26 26 25 25 24 24 24 24 24 24 24 24 25 25 25 25 25 25 26 26 27 27 27 28 28
23 23 23 23 23 22 23 23 23 23 24 24 24 24 25 24 23 23 22 22 22 22 22 21 21 21 21 21 22 22 22 23 23 23 23 24 24 24 25 25 25 25 25
22 22 22 22 22 22 22 22 22 22 22 22 22 22 21 21 20 20 19 19 19 19 19 18 18 19 19 20 20 21 21 21 21 21 22 23 23 23 23 23 24 24 24
22 22 22 22 22 22 21 21 20 20 19 19 20 20 19 19 19 17 17 16 16 16 16 17 16 16 17 18 19 19 19 19 19 20 20 20 21 21 21 22 23 23 23
Wind_Direction
266 264 263 262 260 259 257 254 253 254 254 254 255 256 256 256 257 258 258 259 260 261 262 262 262 263 263 263 263 265 266 265 265 265 265 265 266 267 268 268 268 268 269
268 266 264 262 260 259 257 254 254 255 254 255 256 257 258 257 257 258 259 260 261 262 262 263 263 263 264 264 264 265 265 265 266 266 265 265 266 267 268 268 268 268 269
270 266 264 262 260 259 257 256 255 255 255 256 258 258 257 257 257 258 260 261 262 262 263 264 264 264 264 265 265 266 266 267 267 267 266 266 266 266 267 268 268 269 269
272 269 266 264 262 259 258 257 256 256 257 257 258 259 257 257 258 259 260 262 262 262 262 263 264 264 265 265 266 266 266 267 267 267 267 267 267 266 267 267 268 269 269
272 271 268 265 262 259 258 258 258 258 258 258 259 259 259 258 259 259 260 261 262 262 263 264 265 265 265 266 266 267 268 268 267 267 268 268 268 267 267 267 267 268 269
273 271 268 266 263 260 259 260 260 261 261 260 259 260 259 259 259 260 261 262 263 263 264 265 266 267 267 268 268 268 268 267 267 268 268 268 267 267 267 267 267 268 268
275 272 269 268 264 261 261 261 261 261 261 261 261 262 261 261 261 261 262 263 263 264 264 265 266 268 268 269 269 269 269 269 269 268 268 267 267 268 267 267 267 267 268
275 273 270 269 266 263 262 262 262 262 262 263 263 264 265 264 264 263 263 263 263 264 264 265 266 267 269 269 269 269 269 269 269 269 269 268 268 269 268 268 267 267 267
275 273 271 270 268 266 264 263 262 262 262 264 265 265 266 267 267 266 265 265 264 265 264 265 266 268 268 269 270 270 270 269 269 269 269 269 269 269 269 270 270 269 269
275 273 271 271 268 266 265 264 264 264 264 265 266 266 267 268 268 269 268 267 266 266 266 266 266 267 268 268 269 270 270 270 269 268 269 269 270 270 270 271 271 270 270
277 274 272 271 269 267 266 265 265 264 265 266 267 268 268 269 269 269 269 268 267 267 268 267 266 266 267 269 269 271 270 270 269 268 268 269 270 270 271 271 271 271 270
279 276 274 272 270 268 267 267 266 266 266 267 267 268 268 268 268 269 269 268 268 267 267 267 266 266 267 269 269 270 270 270 270 269 269 270 270 271 271 272 272 272 271
280 278 275 272 271 269 268 267 268 268 267 267 267 267 267 268 268 269 270 269 268 268 267 266 266 266 266 268 268 269 270 270 270 270 269 270 271 270 271 272 271 271 271
280 278 277 275 273 271 269 268 268 268 268 268 268 268 268 268 269 270 270 271 270 269 268 268 268 267 266 267 268 269 270 270 270 270 270 270 271 271 271 270 269 269 269
281 279 277 275 273 271 270 269 269 268 268 268 269 270 270 270 270 270 271 272 271 270 269 269 268 267 266 267 268 269 269 269 269 270 269 269 270 270 270 270 269 268 268
280 278 276 274 274 272 270 269 268 268 269 270 271 272 271 271 271 272 273 273 272 270 270 269 268 266 266 266 268 269 268 269 269 268 268 268 269 269 270 270 269 267 267
279 277 275 273 273 273 272 269 268 268 269 270 271 272 273 273 273 274 275 274 273 271 270 268 267 267 266 266 267 268 269 269 268 267 267 267 268 268 269 269 268 268 268
277 275 274 273 273 273 273 271 269 269 270 271 272 274 274 275 275 275 275 274 273 273 272 269 268 266 266 266 268 269 270 269 267 266 266 266 267 268 268 268 269 270 269
280 277 276 274 273 273 272 271 270 270 270 271 273 275 276 277 277 276 276 274 273 273 272 270 268 267 267 267 268 268 268 268 266 264 265 266 266 267 268 269 270 270 269
280 278 277 275 273 272 271 270 271 272 273 273 275 276 278 280 280 279 278 275 275 274 272 270 268 266 265 265 266 265 266 266 265 265 265 265 266 266 267 268 270 270 270
280 278 277 276 274 273 272 270 271 272 272 274 276 278 280 281 280 278 278 277 276 275 272 269 267 265 263 263 265 264 266 267 264 264 265 265 266 267 267 269 269 270 270
279 279 278 277 275 273 272 271 271 271 272 274 276 278 280 281 281 280 279 277 276 274 272 270 269 266 264 264 264 264 265 266 264 263 264 265 266 267 267 269 269 269 269
280 278 278 277 275 274 273 273 273 273 274 276 278 279 280 281 280 281 279 277 275 273 271 269 267 265 264 263 262 263 264 265 265 265 265 266 268 269 269 269 270 270 270
283 281 279 277 275 274 274 274 275 275 276 278 279 280 281 280 280 280 278 275 274 271 268 267 266 264 262 261 262 261 262 265 265 265 266 266 268 269 269 270 271 272 271
284 283 280 278 276 274 275 275 276 277 277 277 279 279 279 278 279 279 276 275 275 271 266 265 266 264 262 262 260 260 263 265 265 265 265 267 268 270 271 273 273 273 273
284 283 281 280 278 275 274 273 275 275 277 277 278 279 278 277 278 278 277 274 272 268 266 265 265 266 263 260 260 262 264 265 266 267 267 267 268 270 272 275 275 275 275
Height
5703 5703 5702 5703 5704 5706 5707 5709 5711 5713 5715 5717 5718 5720 5722 5723 5724 5725 5726 5727 5728 5729 5730 5731 5731 5732 5733 5733 5734 5734 5734 5735 5735 5736 5736 5736 5736 5736 5736 5736 5736 5736 5735
5694 5693 5693 5693 5694 5696 5698 5699 5701 5703 5705 5706 5708 5710 5711 5712 5714 5714 5715 5716 5717 5718 5718 5719 5720 5721 5721 5722 5722 5722 5723 5723 5723 5724 5724 5725 5726 5725 5725 5724 5724 5723 5723
5684 5684 5684 5684 5685 5687 5688 5690 5691 5692 5694 5695 5697 5698 5699 5701 5702 5703 5704 5705 5705 5706 5707 5708 5708 5709 5709 5710 5710 5710 5711 5711 5711 5711 5712 5712 5713 5714 5713 5712 5711 5711 5710
5675 5674 5674 5675 5675 5677 5678 5679 5681 5682 5683 5684 5685 5687 5688 5689 5691 5692 5693 5693 5694 5695 5695 5696 5696 5697 5697 5697 5697 5698 5698 5698 5699 5698 5698 5699 5699 5700 5701 5701 5699 5698 5697
5665 5664 5664 5664 5665 5666 5667 5669 5669 5670 5671 5672 5674 5675 5676 5678 5679 5680 5681 5681 5682 5683 5683 5683 5683 5684 5684 5684 5684 5684 5685 5685 5685 5685 5685 5685 5685 5685 5686 5687 5687 5685 5684
5655 5654 5654 5654 5654 5655 5657 5658 5659 5660 5661 5661 5662 5663 5665 5666 5667 5668 5669 5669 5670 5670 5671 5671 5671 5671 5672 5672 5672 5671 5671 5672 5672 5672 5672 5671 5672 5672 5672 5673 5672 5672 5671
5646 5645 5644 5644 5645 5645 5646 5647 5648 5649 5650 5651 5652 5652 5653 5654 5655 5655 5656 5657 5657 5658 5658 5658 5658 5658 5659 5659 5659 5659 5658 5658 5658 5658 5658 5657 5658 5658 5658 5658 5658 5658 5658
5636 5636 5635 5635 5635 5636 5636 5637 5638 5639 5640 5640 5641 5642 5642 5642 5642 5643 5643 5644 5644 5645 5645 5645 5645 5646 5646 5646 5646 5645 5645 5645 5645 5645 5645 5644 5644 5644 5644 5644 5644 5645 5644
5627 5627 5626 5626 5626 5626 5626 5627 5627 5628 5629 5630 5630 5631 5631 5631 5630 5630 5630 5631 5631 5632 5632 5633 5633 5633 5633 5633 5633 5633 5632 5632 5632 5632 5632 5632 5632 5631 5631 5631 5631 5631 5631
5618 5618 5617 5616 5616 5616 5616 5617 5617 5618 5618 5619 5619 5619 5619 5619 5619 5619 5618 5619 5619 5619 5619 5619 5620 5620 5620 5620 5620 5620 5620 5619 5619 5619 5619 5619 5619 5619 5618 5618 5618 5618 5618
5609 5608 5608 5607 5607 5606 5606 5607 5607 5607 5608 5607 5607 5607 5607 5607 5607 5607 5607 5607 5606 5606 5606 5607 5607 5607 5608 5608 5608 5607 5607 5607 5606 5607 5607 5607 5606 5606 5606 5606 5605 5605 5605
5600 5599 5598 5598 5597 5597 5596 5596 5597 5597 5596 5596 5596 5596 5595 5595 5595 5595 5595 5594 5594 5594 5594 5594 5594 5595 5595 5595 5595 5595 5595 5594 5594 5594 5594 5594 5594 5594 5593 5593 5593 5592 5592
5592 5591 5589 5588 5588 5587 5587 5586 5586 5586 5585 5585 5585 5584 5584 5584 5584 5583 5582 5582 5582 5582 5582 5582 5582 5582 5582 5583 5583 5583 5583 5582 5582 5582 5582 5582 5582 5581 5581 5581 5580 5580 5580
5583 5581 5580 5579 5578 5578 5577 5576 5576 5575 5575 5575 5574 5574 5574 5573 5573 5572 5571 5570 5570 5570 5569 5569 5569 5569 5570 5570 5570 5570 5570 5570 5570 5570 5570 5570 5570 5570 5569 5569 5569 5569 5568
5573 5572 5570 5569 5569 5568 5567 5566 5565 5565 5565 5564 5564 5564 5563 5562 5562 5561 5560 5559 5559 5558 5558 5557 5557 5557 5557 5558 5558 5558 5559 5559 5559 5558 5558 5558 5558 5558 5558 5558 5558 5557 5558
5563 5562 5561 5560 5559 5558 5557 5556 5555 5555 5554 5554 5554 5553 5553 5552 5551 5551 5550 5549 5548 5547 5546 5546 5546 5546 5546 5547 5547 5547 5547 5547 5547 5547 5547 5547 5547 5547 5547 5547 5547 5547 5548
5553 5552 5551 5550 5549 5548 5547 5546 5546 5545 5545 5545 5544 5543 5542 5542 5541 5540 5539 5538 5537 5536 5535 5535 5535 5535 5536 5536 5536 5536 5536 5536 5537 5537 5537 5537 5537 5537 5537 5537 5538 5538 5538
5544 5542 5541 5540 5539 5538 5537 5537 5536 5536 5536 5535 5534 5533 5532 5531 5531 5530 5529 5528 5527 5526 5525 5525 5525 5525 5525 5525 5526 5525 5526 5526 5526 5526 5527 5527 5527 5527 5528 5528 5529 5529 5528
5534 5532 5531 5530 5529 5528 5528 5527 5527 5527 5526 5525 5525 5524 5523 5522 5521 5520 5519 5518 5517 5516 5515 5515 5515 5515 5515 5515 5515 5515 5515 5516 5516 5516 5517 5517 5518 5518 5518 5519 5519 5519 5519
5524 5522 5521 5520 5520 5519 5518 5518 5518 5518 5517 5516 5515 5514 5513 5512 5512 5510 5509 5508 5507 5507 5506 5505 5505 5505 5506 5506 5506 5506 5506 5507 5507 5507 5507 5508 5508 5509 5509 5510 5510 5510 5510
5515 5513 5512 5511 5511 5510 5510 5509 5509 5509 5508 5507 5507 5505 5504 5503 5502 5501 5500 5499 5498 5497 5497 5496 5496 5496 5497 5497 5497 5497 5498 5498 5498 5499 5499 5500 5500 5500 5501 5501 5501 5501 5501
5506 5505 5504 5503 5502 5502 5501 5501 5501 5500 5500 5499 5498 5497 5496 5494 5494 5493 5491 5490 5489 5488 5488 5488 5488 5488 5488 5488 5489 5489 5490 5490 5491 5491 5492 5492 5492 5492 5492 5492 5493 5492 5493
5498 5497 5496 5495 5494 5494 5493 5493 5493 5492 5492 5491 5490 5489 5487 5486 5485 5484 5483 5482 5481 5481 5481 5481 5481 5481 5481 5481 5482 5482 5483 5483 5483 5484 5484 5484 5484 5484 5484 5484 5484 5484 5484
5491 5490 5488 5488 5487 5486 5486 5486 5485 5485 5484 5483 5482 5481 5480 5479 5477 5476 5476 5475 5475 5474 5474 5474 5475 5475 5475 5475 5476 5476 5476 5476 5476 5476 5477 5477 5477 5477 5477 5477 5477 5476 5476
5484 5482 5481 5480 5480 5479 5479 5479 5478 5478 5477 5476 5475 5474 5473 5472 5471 5470 5470 5469 5469 5468 5469 5469 5469 5469 5470 5470 5470 5470 5470 5470 5470 5470 5470 5470 5470 5470 5470 5470 5469 5469 5468
5477 5475 5474 5473 5473 5472 5472 5472 5472 5471 5471 5470 5469 5468 5468 5467 5466 5465 5465 5464 5464 5464 5464 5464 5465 5465 5465 5464 5464 5465 5465 5465 5464 5464 5464 5464 5464 5464 5464 5463 5462 5462 5461